Time,TemperatureF,DewpointF,PressureIn,WindDirection,WindDirectionDegrees,WindSpeedMPH,WindSpeedGustMPH,Humidity,HourlyPrecipIn,Conditions,Clouds,dailyrainin,SoftwareType,DateUTC
2013-06-04 00:05:00,74.4,74.4,29.93,WSW,257,0.0,0.0,100,0.00,,,0.00,Wunderground v.1.15,2013-06-04 04:05:00,
2013-06-04 00:10:00,74.4,74.4,29.93,WSW,257,0.0,0.0,100,0.00,,,0.00,Wunderground v.1.15,2013-06-04 04:10:00,
2013-06-04 00:15:00,74.4,74.4,29.93,WSW,257,0.0,0.0,100,0.00,,,0.01,Wunderground v.1.15,2013-06-04 04:15:00,
2013-06-04 00:20:00,74.4,74.4,29.93,WSW,257,0.0,0.0,100,0.00,,,0.01,Wunderground v.1.15,2013-06-04 04:20:00,
2013-06-04 00:30:00,74.0,74.0,29.92,WSW,257,0.0,0.0,100,0.00,,,0.01,Wunderground v.1.15,2013-06-04 04:30:00,
2013-06-04 00:35:00,74.0,74.0,29.92,WSW,257,0.0,0.0,100,0.00,,,0.01,Wunderground v.1.15,2013-06-04 04:35:00,
2013-06-04 00:45:00,74.0,74.0,29.92,WSW,257,0.0,0.0,100,0.00,,,0.02,Wunderground v.1.15,2013-06-04 04:45:00,
2013-06-04 00:55:00,74.0,74.0,29.92,WSW,257,0.0,0.0,100,0.00,,,0.02,Wunderground v.1.15,2013-06-04 04:55:00,
2013-06-04 01:05:00,74.0,74.0,29.92,WSW,257,0.0,0.0,100,0.00,,,0.02,Wunderground v.1.15,2013-06-04 05:05:00,
2013-06-04 01:15:00,74.6,74.6,29.91,WSW,257,0.0,0.0,100,0.00,,,0.03,Wunderground v.1.15,2013-06-04 05:15:00,
2013-06-04 01:25:00,74.4,74.4,29.91,WSW,257,0.0,0.0,100,0.00,,,0.03,Wunderground v.1.15,2013-06-04 05:25:00,
2013-06-04 01:30:00,74.4,74.4,29.90,WSW,257,0.0,0.0,100,0.00,,,0.03,Wunderground v.1.15,2013-06-04 05:30:00,
2013-06-04 01:40:00,74.4,74.4,29.90,WSW,257,0.0,0.0,100,0.00,,,0.03,Wunderground v.1.15,2013-06-04 05:40:00,
2013-06-04 01:50:00,74.4,74.4,29.89,WSW,257,0.0,0.0,100,0.00,,,0.04,Wunderground v.1.15,2013-06-04 05:50:00,
2013-06-04 01:55:00,74.6,74.6,29.89,WSW,257,0.0,0.0,100,0.00,,,0.04,Wunderground v.1.15,2013-06-04 05:55:00,
2013-06-04 02:05:00,74.7,74.7,29.89,WSW,258,0.0,0.0,100,0.00,,,0.04,Wunderground v.1.15,2013-06-04 06:05:00,
2013-06-04 02:15:00,74.9,74.9,29.88,WSW,258,0.0,0.0,100,0.00,,,0.05,Wunderground v.1.15,2013-06-04 06:15:00,
2013-06-04 02:25:00,75.1,75.1,29.88,West,280,0.0,0.0,100,0.00,,,0.05,Wunderground v.1.15,2013-06-04 06:25:00,
2013-06-04 02:30:00,75.1,75.1,29.88,West,280,0.0,0.0,100,0.00,,,0.05,Wunderground v.1.15,2013-06-04 06:30:00,
2013-06-04 02:50:00,75.3,75.3,29.87,West,280,0.0,0.0,100,0.00,,,0.06,Wunderground v.1.15,2013-06-04 06:50:00,
2013-06-04 03:00:00,75.3,75.3,29.87,West,280,0.0,0.0,100,0.00,,,0.06,Wunderground v.1.15,2013-06-04 07:00:00,
2013-06-04 03:10:00,75.4,75.4,29.87,West,280,0.0,0.0,100,0.00,,,0.07,Wunderground v.1.15,2013-06-04 07:10:00,
2013-06-04 03:20:00,75.4,75.4,29.87,West,280,0.0,0.0,100,0.00,,,0.07,Wunderground v.1.15,2013-06-04 07:20:00,
2013-06-04 03:30:00,75.4,75.4,29.87,NNW,330,0.0,0.0,100,0.00,,,0.07,Wunderground v.1.15,2013-06-04 07:30:00,
2013-06-04 03:40:00,75.6,75.6,29.87,NNW,330,0.0,0.0,100,0.00,,,0.08,Wunderground v.1.15,2013-06-04 07:40:00,
2013-06-04 03:50:00,75.6,75.6,29.87,NNW,330,0.0,0.0,100,0.00,,,0.08,Wunderground v.1.15,2013-06-04 07:50:00,
2013-06-04 04:00:00,75.6,75.6,29.87,NNW,330,0.0,0.0,100,0.00,,,0.08,Wunderground v.1.15,2013-06-04 08:00:00,
2013-06-04 04:10:00,75.6,75.6,29.87,NNW,330,0.0,0.0,100,0.00,,,0.09,Wunderground v.1.15,2013-06-04 08:10:00,
2013-06-04 04:20:00,75.6,75.6,29.87,NNW,330,0.0,0.0,100,0.00,,,0.09,Wunderground v.1.15,2013-06-04 08:20:00,
2013-06-04 04:30:00,75.4,75.4,29.86,NNW,330,0.0,0.0,100,0.00,,,0.09,Wunderground v.1.15,2013-06-04 08:30:00,
2013-06-04 04:40:00,75.6,75.6,29.86,NNW,330,0.0,0.0,100,0.00,,,0.09,Wunderground v.1.15,2013-06-04 08:40:00,
2013-06-04 04:50:00,75.6,75.6,29.87,NNW,330,0.0,0.0,100,0.00,,,0.10,Wunderground v.1.15,2013-06-04 08:50:00,
2013-06-04 04:55:00,75.4,75.4,29.87,NNW,330,0.0,0.0,100,0.00,,,0.10,Wunderground v.1.15,2013-06-04 08:55:00,
2013-06-04 05:05:00,75.4,75.4,29.86,NNW,330,0.0,0.0,100,0.00,,,0.10,Wunderground v.1.15,2013-06-04 09:05:00,
2013-06-04 05:10:00,75.4,75.4,29.86,NNW,330,0.0,0.0,100,0.00,,,0.11,Wunderground v.1.15,2013-06-04 09:10:00,
2013-06-04 05:20:00,75.4,75.4,29.87,NNW,330,0.0,0.0,100,0.00,,,0.11,Wunderground v.1.15,2013-06-04 09:20:00,
2013-06-04 05:30:00,75.4,75.4,29.87,NNW,330,0.0,0.0,100,0.00,,,0.11,Wunderground v.1.15,2013-06-04 09:30:00,
2013-06-04 05:40:00,75.4,75.4,29.87,NNW,333,0.0,0.0,100,0.00,,,0.11,Wunderground v.1.15,2013-06-04 09:40:00,
2013-06-04 05:50:00,75.4,75.4,29.87,NNE,13,0.0,0.0,100,0.00,,,0.12,Wunderground v.1.15,2013-06-04 09:50:00,
2013-06-04 06:00:00,75.6,75.6,29.87,NNE,18,0.0,0.0,100,0.00,,,0.12,Wunderground v.1.15,2013-06-04 10:00:00,
2013-06-04 06:05:00,75.6,75.6,29.87,NNE,18,0.0,0.0,100,0.00,,,0.12,Wunderground v.1.15,2013-06-04 10:05:00,
2013-06-04 06:15:00,75.8,75.8,29.88,NNE,18,0.0,0.0,100,0.00,,,0.13,Wunderground v.1.15,2013-06-04 10:15:00,
2013-06-04 06:20:00,75.8,75.8,29.88,NNE,18,0.0,0.0,100,0.00,,,0.13,Wunderground v.1.15,2013-06-04 10:20:00,
2013-06-04 06:30:00,76.1,76.1,29.88,NNE,18,0.0,0.0,100,0.00,,,0.13,Wunderground v.1.15,2013-06-04 10:30:00,
2013-06-04 06:35:00,76.3,76.3,29.88,NNE,28,0.0,0.0,100,0.00,,,0.13,Wunderground v.1.15,2013-06-04 10:35:00,
2013-06-04 06:45:00,76.8,76.8,29.88,ENE,58,1.0,2.0,100,0.00,,,0.13,Wunderground v.1.15,2013-06-04 10:45:00,
2013-06-04 06:50:00,77.0,77.0,29.88,ENE,64,2.0,2.0,100,0.00,,,0.14,Wunderground v.1.15,2013-06-04 10:50:00,
2013-06-04 07:00:00,77.6,77.6,29.88,NE,52,2.0,2.0,100,0.00,,,0.14,Wunderground v.1.15,2013-06-04 11:00:00,
2013-06-04 07:10:00,77.9,77.9,29.88,ENE,71,0.0,0.0,100,0.00,,,0.14,Wunderground v.1.15,2013-06-04 11:10:00,
2013-06-04 07:20:00,78.1,78.1,29.89,NE,41,2.0,2.0,100,0.00,,,0.15,Wunderground v.1.15,2013-06-04 11:20:00,
2013-06-04 07:25:00,78.1,78.1,29.89,ENE,64,2.0,2.0,100,0.00,,,0.15,Wunderground v.1.15,2013-06-04 11:25:00,
2013-06-04 07:35:00,78.5,78.5,29.89,ENE,61,4.0,5.0,100,0.00,,,0.15,Wunderground v.1.15,2013-06-04 11:35:00,
2013-06-04 07:45:00,78.6,78.6,29.89,NE,52,1.0,5.0,100,0.00,,,0.15,Wunderground v.1.15,2013-06-04 11:45:00,
2013-06-04 07:55:00,78.8,78.8,29.89,ENE,58,4.0,4.0,100,0.00,,,0.15,Wunderground v.1.15,2013-06-04 11:55:00,
2013-06-04 08:00:00,79.0,79.0,29.89,ENE,64,3.0,5.0,100,0.00,,,0.16,Wunderground v.1.15,2013-06-04 12:00:00,
2013-06-04 08:10:00,79.0,79.0,29.89,ENE,76,2.0,2.0,100,0.00,,,0.16,Wunderground v.1.15,2013-06-04 12:10:00,
2013-06-04 08:15:00,78.8,78.8,29.90,ENE,58,2.0,2.0,100,0.00,,,0.16,Wunderground v.1.15,2013-06-04 12:15:00,
2013-06-04 08:25:00,79.0,79.0,29.90,East,80,0.0,1.0,100,0.00,,,0.17,Wunderground v.1.15,2013-06-04 12:25:00,
2013-06-04 08:30:00,79.0,79.0,29.90,East,95,1.0,4.0,100,0.00,,,0.17,Wunderground v.1.15,2013-06-04 12:30:00,
2013-06-04 08:40:00,79.2,79.2,29.90,East,80,2.0,2.0,100,0.00,,,0.17,Wunderground v.1.15,2013-06-04 12:40:00,
2013-06-04 08:45:00,79.4,79.4,29.91,ENE,71,1.0,2.0,100,0.00,,,0.17,Wunderground v.1.15,2013-06-04 12:45:00,
2013-06-04 08:55:00,79.4,79.4,29.91,ENE,71,1.0,3.0,100,0.00,,,0.17,Wunderground v.1.15,2013-06-04 12:55:00,
2013-06-04 09:00:00,79.6,79.6,29.91,ENE,72,1.0,1.0,100,0.00,,,0.17,Wunderground v.1.15,2013-06-04 13:00:00,
2013-06-04 09:10:00,79.6,79.6,29.91,ENE,73,0.0,2.0,100,0.00,,,0.18,Wunderground v.1.15,2013-06-04 13:10:00,
2013-06-04 09:15:00,79.8,79.8,29.91,ENE,62,1.0,2.0,100,0.00,,,0.18,Wunderground v.1.15,2013-06-04 13:15:00,
2013-06-04 09:25:00,79.9,79.9,29.91,ENE,73,1.0,2.0,100,0.00,,,0.18,Wunderground v.1.15,2013-06-04 13:25:00,
2013-06-04 09:30:00,80.1,80.1,29.91,ENE,76,1.0,1.0,100,0.00,,,0.18,Wunderground v.1.15,2013-06-04 13:30:00,
2013-06-04 09:40:00,80.1,80.1,29.91,ENE,76,2.0,2.0,100,0.00,,,0.19,Wunderground v.1.15,2013-06-04 13:40:00,
2013-06-04 09:45:00,80.1,80.1,29.92,ENE,78,2.0,2.0,100,0.00,,,0.19,Wunderground v.1.15,2013-06-04 13:45:00,
2013-06-04 09:55:00,80.3,80.3,29.92,ENE,66,3.0,3.0,100,0.00,,,0.19,Wunderground v.1.15,2013-06-04 13:55:00,
2013-06-04 10:00:00,80.3,80.3,29.92,ENE,71,1.0,1.0,100,0.00,,,0.19,Wunderground v.1.15,2013-06-04 14:00:00,
2013-06-04 10:10:00,80.3,80.3,29.92,ENE,78,1.0,3.0,100,0.00,,,0.20,Wunderground v.1.15,2013-06-04 14:10:00,
2013-06-04 10:20:00,80.1,80.1,29.93,East,82,1.0,1.0,100,0.00,,,0.20,Wunderground v.1.15,2013-06-04 14:20:00,
2013-06-04 10:25:00,80.1,80.1,29.93,East,85,1.0,1.0,100,0.00,,,0.20,Wunderground v.1.15,2013-06-04 14:25:00,
2013-06-04 10:35:00,80.1,80.1,29.93,ENE,78,0.0,0.0,100,0.00,,,0.21,Wunderground v.1.15,2013-06-04 14:35:00,
2013-06-04 10:45:00,80.1,80.1,29.94,ENE,75,1.0,1.0,100,0.00,,,0.21,Wunderground v.1.15,2013-06-04 14:45:00,
2013-06-04 10:50:00,80.1,80.1,29.94,ENE,78,1.0,1.0,100,0.00,,,0.21,Wunderground v.1.15,2013-06-04 14:50:00,
2013-06-04 11:00:00,80.1,80.1,29.94,East,86,1.0,1.0,100,0.00,,,0.21,Wunderground v.1.15,2013-06-04 15:00:00,
2013-06-04 11:05:00,80.1,80.1,29.94,East,79,1.0,1.0,100,0.00,,,0.22,Wunderground v.1.15,2013-06-04 15:05:00,
2013-06-04 11:15:00,80.1,80.1,29.94,ESE,103,2.0,2.0,100,0.00,,,0.22,Wunderground v.1.15,2013-06-04 15:15:00,
2013-06-04 11:25:00,80.1,80.1,29.94,ENE,76,1.0,1.0,100,0.00,,,0.22,Wunderground v.1.15,2013-06-04 15:25:00,
2013-06-04 11:35:00,79.9,79.9,29.93,ESE,102,2.0,4.0,100,0.00,,,0.23,Wunderground v.1.15,2013-06-04 15:35:00,
2013-06-04 11:45:00,80.1,80.1,29.93,East,79,2.0,4.0,100,0.00,,,0.23,Wunderground v.1.15,2013-06-04 15:45:00,
2013-06-04 11:55:00,80.1,80.1,29.93,East,100,3.0,3.0,100,0.00,,,0.23,Wunderground v.1.15,2013-06-04 15:55:00,
2013-06-04 12:00:00,80.1,80.1,29.92,ESE,106,3.0,3.0,100,0.00,,,0.24,Wunderground v.1.15,2013-06-04 16:00:00,
2013-06-04 12:10:00,80.1,80.1,29.92,ENE,65,4.0,4.0,100,0.00,,,0.24,Wunderground v.1.15,2013-06-04 16:10:00,
2013-06-04 12:20:00,80.3,80.3,29.92,East,100,4.0,7.0,100,0.00,,,0.24,Wunderground v.1.15,2013-06-04 16:20:00,
2013-06-04 12:30:00,80.3,80.3,29.92,East,83,5.0,8.0,100,0.00,,,0.25,Wunderground v.1.15,2013-06-04 16:30:00,
2013-06-04 12:40:00,80.5,80.5,29.92,East,83,3.0,3.0,100,0.00,,,0.25,Wunderground v.1.15,2013-06-04 16:40:00,
2013-06-04 12:50:00,80.5,80.5,29.91,ENE,71,3.0,6.0,100,0.00,,,0.25,Wunderground v.1.15,2013-06-04 16:50:00,
2013-06-04 13:00:00,80.5,80.5,29.91,NE,54,3.0,3.0,100,0.00,,,0.26,Wunderground v.1.15,2013-06-04 17:00:00,
2013-06-04 13:10:00,80.5,80.5,29.91,ENE,59,3.0,5.0,100,0.00,,,0.26,Wunderground v.1.15,2013-06-04 17:10:00,
2013-06-04 13:20:00,80.5,80.5,29.91,East,82,3.0,3.0,100,0.00,,,0.26,Wunderground v.1.15,2013-06-04 17:20:00,
2013-06-04 13:30:00,80.3,80.3,29.90,ENE,61,4.0,4.0,100,0.00,,,0.27,Wunderground v.1.15,2013-06-04 17:30:00,
2013-06-04 13:35:00,80.3,80.3,29.90,NE,54,5.0,8.0,100,0.00,,,0.27,Wunderground v.1.15,2013-06-04 17:35:00,
2013-06-04 13:45:00,80.3,80.3,29.90,ENE,71,7.0,7.0,100,0.00,,,0.27,Wunderground v.1.15,2013-06-04 17:45:00,
2013-06-04 13:50:00,80.3,80.3,29.90,East,86,6.0,7.0,100,0.00,,,0.27,Wunderground v.1.15,2013-06-04 17:50:00,
2013-06-04 14:00:00,80.3,80.3,29.90,NE,37,5.0,5.0,100,0.00,,,0.27,Wunderground v.1.15,2013-06-04 18:00:00,
2013-06-04 14:05:00,80.3,80.3,29.90,ENE,73,5.0,5.0,100,0.00,,,0.27,Wunderground v.1.15,2013-06-04 18:05:00,
2013-06-04 14:15:00,80.3,80.3,29.90,NE,55,3.0,6.0,100,0.00,,,0.27,Wunderground v.1.15,2013-06-04 18:15:00,
2013-06-04 14:25:00,80.3,80.3,29.90,East,97,6.0,9.0,100,0.00,,,0.27,Wunderground v.1.15,2013-06-04 18:25:00,
2013-06-04 14:30:00,80.3,80.3,29.89,NE,45,7.0,7.0,100,0.00,,,0.27,Wunderground v.1.15,2013-06-04 18:30:00,
2013-06-04 14:40:00,80.5,80.5,29.89,ENE,68,8.0,8.0,100,0.00,,,0.28,Wunderground v.1.15,2013-06-04 18:40:00,
2013-06-04 14:50:00,80.3,80.3,29.89,ENE,62,8.0,8.0,100,0.00,,,0.28,Wunderground v.1.15,2013-06-04 18:50:00,
2013-06-04 15:00:00,80.3,80.3,29.89,ENE,68,6.0,7.0,100,0.00,,,0.28,Wunderground v.1.15,2013-06-04 19:00:00,
2013-06-04 15:10:00,80.5,80.5,29.89,NE,55,8.0,8.0,100,0.00,,,0.28,Wunderground v.1.15,2013-06-04 19:10:00,
2013-06-04 15:15:00,80.5,80.5,29.89,NE,56,7.0,8.0,100,0.00,,,0.28,Wunderground v.1.15,2013-06-04 19:15:00,
2013-06-04 15:25:00,81.1,81.1,29.89,NE,56,7.0,8.0,100,0.00,,,0.29,Wunderground v.1.15,2013-06-04 19:25:00,
2013-06-04 15:35:00,81.1,81.1,29.89,ENE,62,7.0,7.0,100,0.00,,,0.29,Wunderground v.1.15,2013-06-04 19:35:00,
2013-06-04 15:45:00,80.9,80.9,29.89,East,80,6.0,8.0,100,0.00,,,0.29,Wunderground v.1.15,2013-06-04 19:45:00,
2013-06-04 15:50:00,81.1,81.1,29.89,ENE,78,4.0,4.0,100,0.00,,,0.29,Wunderground v.1.15,2013-06-04 19:50:00,
2013-06-04 16:00:00,81.1,81.1,29.88,East,88,5.0,11.0,100,0.00,,,0.29,Wunderground v.1.15,2013-06-04 20:00:00,
2013-06-04 16:05:00,80.9,80.9,29.88,ENE,65,7.0,11.0,100,0.00,,,0.30,Wunderground v.1.15,2013-06-04 20:05:00,
2013-06-04 16:15:00,80.7,80.7,29.88,East,80,7.0,12.0,100,0.00,,,0.30,Wunderground v.1.15,2013-06-04 20:15:00,
2013-06-04 16:25:00,80.5,80.5,29.88,NE,38,6.0,12.0,100,0.00,,,0.30,Wunderground v.1.15,2013-06-04 20:25:00,
2013-06-04 16:35:00,80.1,80.1,29.88,East,86,6.0,7.0,100,0.00,,,0.30,Wunderground v.1.15,2013-06-04 20:35:00,
2013-06-04 16:45:00,80.3,80.3,29.88,ENE,71,7.0,8.0,100,0.00,,,0.30,Wunderground v.1.15,2013-06-04 20:45:00,
2013-06-04 16:55:00,80.3,80.3,29.88,ENE,62,6.0,6.0,100,0.00,,,0.30,Wunderground v.1.15,2013-06-04 20:55:00,
2013-06-04 17:05:00,79.8,79.8,29.87,ENE,59,9.0,12.0,100,0.00,,,0.31,Wunderground v.1.15,2013-06-04 21:05:00,
2013-06-04 17:10:00,79.9,79.9,29.87,ENE,59,9.0,9.0,100,0.00,,,0.31,Wunderground v.1.15,2013-06-04 21:10:00,
2013-06-04 17:20:00,79.8,79.8,29.87,ENE,59,7.0,8.0,100,0.00,,,0.31,Wunderground v.1.15,2013-06-04 21:20:00,
2013-06-04 17:30:00,80.1,80.1,29.88,ENE,68,6.0,9.0,100,0.00,,,0.31,Wunderground v.1.15,2013-06-04 21:30:00,
2013-06-04 17:35:00,80.1,80.1,29.88,ESE,112,5.0,9.0,100,0.00,,,0.31,Wunderground v.1.15,2013-06-04 21:35:00,
2013-06-04 17:45:00,79.9,79.9,29.88,ENE,58,6.0,8.0,100,0.00,,,0.31,Wunderground v.1.15,2013-06-04 21:45:00,
2013-06-04 17:50:00,80.1,80.1,29.88,NE,40,7.0,10.0,100,0.00,,,0.32,Wunderground v.1.15,2013-06-04 21:50:00,
2013-06-04 18:00:00,80.1,80.1,29.88,NE,49,7.0,12.0,100,0.00,,,0.32,Wunderground v.1.15,2013-06-04 22:00:00,
2013-06-04 18:10:00,80.3,80.3,29.88,ENE,78,8.0,10.0,100,0.00,,,0.32,Wunderground v.1.15,2013-06-04 22:10:00,
2013-06-04 18:15:00,80.3,80.3,29.88,ENE,75,8.0,10.0,100,0.00,,,0.32,Wunderground v.1.15,2013-06-04 22:15:00,
2013-06-04 18:25:00,80.3,80.3,29.88,ENE,76,7.0,7.0,100,0.00,,,0.32,Wunderground v.1.15,2013-06-04 22:25:00,
2013-06-04 18:35:00,80.3,80.3,29.88,ENE,59,8.0,8.0,100,0.00,,,0.32,Wunderground v.1.15,2013-06-04 22:35:00,
2013-06-04 18:40:00,80.3,80.3,29.88,NE,44,7.0,7.0,100,0.00,,,0.32,Wunderground v.1.15,2013-06-04 22:40:00,
2013-06-04 18:50:00,80.3,80.3,29.87,ENE,61,8.0,10.0,100,0.00,,,0.32,Wunderground v.1.15,2013-06-04 22:50:00,
2013-06-04 18:55:00,80.3,80.3,29.87,ENE,66,8.0,10.0,100,0.00,,,0.32,Wunderground v.1.15,2013-06-04 22:55:00,
2013-06-04 19:05:00,80.1,80.1,29.88,ENE,69,7.0,12.0,100,0.00,,,0.33,Wunderground v.1.15,2013-06-04 23:05:00,
2013-06-04 19:15:00,79.9,79.9,29.88,NE,56,7.0,8.0,100,0.00,,,0.33,Wunderground v.1.15,2013-06-04 23:15:00,
2013-06-04 19:20:00,80.1,80.1,29.88,ENE,72,6.0,10.0,100,0.00,,,0.33,Wunderground v.1.15,2013-06-04 23:20:00,
2013-06-04 19:30:00,80.1,80.1,29.88,ENE,62,8.0,10.0,100,0.00,,,0.33,Wunderground v.1.15,2013-06-04 23:30:00,
2013-06-04 19:40:00,80.3,80.3,29.88,East,86,8.0,11.0,100,0.00,,,0.33,Wunderground v.1.15,2013-06-04 23:40:00,
2013-06-04 19:50:00,80.5,80.5,29.89,NE,55,8.0,8.0,100,0.00,,,0.33,Wunderground v.1.15,2013-06-04 23:50:00,
2013-06-04 19:55:00,80.5,80.5,29.89,East,88,7.0,8.0,100,0.00,,,0.33,Wunderground v.1.15,2013-06-04 23:55:00,
2013-06-04 20:05:00,80.3,80.3,29.89,ENE,62,8.0,10.0,100,0.00,,,0.33,Wunderground v.1.15,2013-06-05 00:05:00,
2013-06-04 20:15:00,80.5,80.5,29.89,East,95,10.0,13.0,100,0.00,,,0.33,Wunderground v.1.15,2013-06-05 00:15:00,
2013-06-04 20:25:00,80.5,80.5,29.89,ENE,64,9.0,12.0,100,0.00,,,0.34,Wunderground v.1.15,2013-06-05 00:25:00,
2013-06-04 20:35:00,80.5,80.5,29.89,ENE,68,10.0,12.0,100,0.00,,,0.34,Wunderground v.1.15,2013-06-05 00:35:00,
2013-06-04 20:45:00,80.7,80.7,29.90,East,79,10.0,10.0,100,0.00,,,0.34,Wunderground v.1.15,2013-06-05 00:45:00,
2013-06-04 20:55:00,80.7,80.7,29.90,ENE,76,7.0,11.0,100,0.00,,,0.34,Wunderground v.1.15,2013-06-05 00:55:00,
2013-06-04 21:05:00,80.7,80.7,29.90,ENE,62,9.0,9.0,100,0.00,,,0.34,Wunderground v.1.15,2013-06-05 01:05:00,
2013-06-04 21:15:00,80.5,80.5,29.89,ENE,66,11.0,14.0,100,0.00,,,0.34,Wunderground v.1.15,2013-06-05 01:15:00,
2013-06-04 21:20:00,80.7,80.7,29.89,East,90,11.0,11.0,100,0.00,,,0.34,Wunderground v.1.15,2013-06-05 01:20:00,
2013-06-04 21:30:00,80.5,80.5,29.89,North,7,11.0,13.0,100,0.00,,,0.34,Wunderground v.1.15,2013-06-05 01:30:00,
2013-06-04 21:40:00,80.7,80.7,29.89,NE,52,10.0,10.0,100,0.00,,,0.34,Wunderground v.1.15,2013-06-05 01:40:00,
2013-06-04 21:45:00,80.7,80.7,29.89,ENE,69,10.0,14.0,100,0.00,,,0.34,Wunderground v.1.15,2013-06-05 01:45:00,
2013-06-04 21:55:00,80.7,80.7,29.89,ENE,64,10.0,12.0,100,0.00,,,0.34,Wunderground v.1.15,2013-06-05 01:55:00,
2013-06-04 22:00:00,80.7,80.7,29.90,ENE,59,10.0,10.0,100,0.00,,,0.34,Wunderground v.1.15,2013-06-05 02:00:00,
2013-06-04 22:10:00,80.7,80.7,29.90,ENE,73,9.0,9.0,100,0.00,,,0.34,Wunderground v.1.15,2013-06-05 02:10:00,
2013-06-04 22:20:00,80.7,80.7,29.90,East,85,8.0,13.0,100,0.00,,,0.34,Wunderground v.1.15,2013-06-05 02:20:00,
2013-06-04 22:25:00,80.7,80.7,29.90,NE,48,8.0,13.0,100,0.00,,,0.34,Wunderground v.1.15,2013-06-05 02:25:00,
2013-06-04 22:35:00,80.7,80.7,29.91,ENE,61,7.0,8.0,100,0.00,,,0.34,Wunderground v.1.15,2013-06-05 02:35:00,
2013-06-04 22:40:00,80.7,80.7,29.91,ESE,104,6.0,6.0,100,0.00,,,0.34,Wunderground v.1.15,2013-06-05 02:40:00,
2013-06-04 22:50:00,80.7,80.7,29.92,ENE,72,8.0,8.0,100,0.00,,,0.35,Wunderground v.1.15,2013-06-05 02:50:00,
2013-06-04 23:00:00,80.7,80.7,29.91,NE,54,8.0,8.0,100,0.00,,,0.35,Wunderground v.1.15,2013-06-05 03:00:00,
2013-06-04 23:05:00,80.7,80.7,29.91,ENE,66,7.0,8.0,100,0.00,,,0.35,Wunderground v.1.15,2013-06-05 03:05:00,
2013-06-04 23:15:00,80.7,80.7,29.92,ENE,62,7.0,8.0,100,0.00,,,0.35,Wunderground v.1.15,2013-06-05 03:15:00,
2013-06-04 23:25:00,80.7,80.7,29.92,ENE,73,8.0,8.0,100,0.00,,,0.35,Wunderground v.1.15,2013-06-05 03:25:00,
2013-06-04 23:35:00,80.7,80.7,29.92,ENE,65,7.0,13.0,100,0.00,,,0.35,Wunderground v.1.15,2013-06-05 03:35:00,
2013-06-04 23:45:00,80.7,80.7,29.91,ENE,59,10.0,15.0,100,0.00,,,0.35,Wunderground v.1.15,2013-06-05 03:45:00,
2013-06-04 23:55:00,80.7,80.7,29.91,NE,45,9.0,11.0,100,0.00,,,0.35,Wunderground v.1.15,2013-06-05 03:55:00,